Погода в Мариехамне

Финляндия     60°06′42″N   19°56′33″E
темп.,
°C
ветер,
м/с
пор.,
м/с
влажн.,
%
обл.,
%
осадки,
мм/ч
давл.,
гПа
погр.,
м
14 апреля, ср
ср1400:00+3зюз56836 0.0 101972
03:00+3сз568476 0.0 1020126
06:00+2ссз57814 0.0 1021345
09:00+2сз67773 0.0 1023572
12:00+2сз68712 0.0 1025537
15:00+2сз67735 0.0 1026375
18:00+3ссз577046 0.0 1027193
21:00+3с4470100 0.0 102857
15 апреля, чт
чт1500:00+3ссв457699 0.0 1030112
03:00+3ссв467988 0.0 1031135
06:00+3ссв457998 0.0 1031119
09:00+3св45768 0.0 1033103
12:00+3св44731 0.0 103480
15:00+4ссв34710 0.0 103455
18:00+4с67730 0.0 1033117
21:00+3с69770 0.0 1033152
16 апреля, пт
пт1600:00+3ссв69800 0.0 1033147
03:00+3ссв69830 0.0 1032135
06:00+3св67850 0.0 1032124
09:00+3св688096 0.0 1032131
12:00+3св6878100 0.0 1033131
15:00+4св5774100 0.0 103380
18:00+5ссв696899 0.0 103284
21:00+4ссв7107787 0.0 1032133
17 апреля, сб
сб1700:00+3всв338391 0.0 103216
03:00+4ссв447517 0.0 103232
06:00+4всв6880100 0.0 103286
09:00+3всв69835 0.0 1032135
12:00+3всв698453 0.0 1032169
15:00+4всв58815 0.0 103299
18:00+4всв587893 0.0 103196
21:00+4св6776100 0.0 103173
18 апреля, вс
вс1800:00+5св5672100 0.0 103142
03:00+4в577999 0.0 103077
06:00+4в56875 0.0 103086
09:00+4в56895 0.0 102982
12:00+4вюв46894 0.0 103081
15:00+4вюв46890 0.0 103078
18:00+4вюв45892 0.0 102956
21:00+4юв33880 0.0 102937